Robinson, IL

2:11 AM CDT on October 22, 2017 (GMT -0500)
Robinson Municipal

Weather History for KRSV - November, 2013

Change the Weather History Date:

Monday, November 11, 2013

  Actual Average (KLWV) Record (KLWV)
Temperature  
Mean Temperature 43 °F -  
Max Temperature 56 °F 53 °F 78 °F (2010)
Min Temperature 30 °F 34 °F 22 °F (1991)
Degree Days  
Heating Degree Days 22    
Moisture  
Dew Point 37 °F    
Average Humidity 80    
Maximum Humidity 99    
Minimum Humidity 46    
Precipitation  
Precipitation 0.02 in - - ()
Sea Level Pressure  
Sea Level Pressure 30.25 in    
Wind  
Wind Speed 5 mph (West)    
Max Wind Speed 21 mph    
Max Gust Speed 30 mph    
Visibility 10 miles    
Events Rain , Snow    
Averages and records for this station are not official NWS values.
T = Trace of Precipitation, MM = Missing Value Source: NWS Daily Summary

Daily Weather History Graph

Daily Weather History Graph

Search for Another Location

Airport or City:

Trip Planner

Search our weather history database for the weather conditions in past years. The results will help you decide how hot, cold, wet, or windy it might be!

Date:

Astronomy

Nov. 11, 2013 Rise Set
Actual Time 6:29 AM CST 4:39 PM CST
Civil Twilight 6:01 AM CST 5:07 PM CST
Nautical Twilight 5:28 AM CST 5:39 PM CST
Astronomical Twilight 4:57 AM CST 6:11 PM CST
Moon 1:17 PM CST (11/11) 12:17 AM CST (11/11)
Length of Visible Light 11h 06m
Length of Day
10h 10m
Waxing Gibbous, 66% of the Moon is Illuminated
Nov 11
Waxing Gibbous
Nov 17
Full
Nov 25
Last Quarter
Dec 2
New
Dec 9
First Quarter

Hourly Weather History & Observations

Time (CST) Temp. Windchill Dew Point Humidity Pressure Visibility Wind Dir Wind Speed Gust Speed Precip Events Conditions
12:15 AM 31.5 °F - 31.1 °F 99% 30.32 in 10.0 mi Calm Calm - N/A   Clear
12:35 AM 31.5 °F - 30.9 °F 98% 30.31 in 10.0 mi Calm Calm - N/A   Clear
12:55 AM 32.2 °F - 32.0 °F 99% 30.32 in 10.0 mi Calm Calm - N/A   Clear
1:15 AM 31.8 °F - 30.9 °F 96% 30.32 in 10.0 mi Calm Calm - N/A   Clear
1:35 AM 31.8 °F - 31.3 °F 98% 30.31 in 10.0 mi Calm Calm - N/A   Clear
1:55 AM 30.7 °F 27.3 °F 29.8 °F 96% 30.29 in 10.0 mi SSE 3.5 mph - N/A   Clear
2:15 AM 32.0 °F 28.7 °F 31.8 °F 99% 30.29 in 10.0 mi South 3.5 mph - N/A   Mostly Cloudy
2:35 AM 34.7 °F 30.6 °F 34.0 °F 97% 30.27 in 10.0 mi South 4.6 mph - N/A   Overcast
2:55 AM 37.6 °F 32.3 °F 34.7 °F 89% 30.26 in 10.0 mi South 6.9 mph - N/A   Scattered Clouds
3:15 AM 35.2 °F - 32.2 °F 89% 30.27 in 10.0 mi Calm Calm - N/A   Scattered Clouds
3:35 AM 33.8 °F - 32.0 °F 93% 30.27 in 10.0 mi Calm Calm - N/A   Clear
3:55 AM 33.8 °F - 31.8 °F 92% 30.27 in 10.0 mi Calm Calm - N/A   Clear
4:15 AM 33.8 °F - 32.2 °F 94% 30.27 in 10.0 mi Calm Calm - N/A   Clear
4:35 AM 34.3 °F - 32.5 °F 93% 30.27 in 10.0 mi Calm Calm - N/A   Clear
4:55 AM 34.5 °F - 32.9 °F 94% 30.27 in 10.0 mi Calm Calm - N/A   Clear
5:15 AM 34.3 °F - 32.4 °F 92% 30.28 in 10.0 mi Calm Calm - N/A   Clear
5:35 AM 34.3 °F - 33.1 °F 95% 30.28 in 10.0 mi Calm Calm - N/A   Scattered Clouds
5:55 AM 34.9 °F - 33.8 °F 96% 30.27 in 10.0 mi Calm Calm - N/A   Scattered Clouds
6:15 AM 35.6 °F - 34.7 °F 97% 30.27 in 10.0 mi Calm Calm - N/A   Clear
6:35 AM 35.4 °F - 34.5 °F 97% 30.27 in 10.0 mi Calm Calm - N/A   Scattered Clouds
6:55 AM 37.4 °F - 35.6 °F 93% 30.28 in 10.0 mi Calm Calm - N/A   Mostly Cloudy
7:15 AM 39.0 °F - 36.5 °F 91% 30.28 in 10.0 mi Calm Calm - N/A   Overcast
7:35 AM 41.4 °F 37.6 °F 37.4 °F 86% 30.27 in 10.0 mi South 5.8 mph - N/A   Overcast
7:55 AM 42.8 °F 38.0 °F 37.6 °F 82% 30.27 in 10.0 mi South 8.1 mph - N/A   Overcast
8:15 AM 44.2 °F 40.3 °F 37.6 °F 77% 30.27 in 10.0 mi SSW 6.9 mph - N/A   Overcast
8:35 AM 46.0 °F 42.5 °F 37.8 °F 73% 30.27 in 10.0 mi SSW 6.9 mph - N/A   Overcast
8:55 AM 47.7 °F - 38.3 °F 70% 30.25 in 10.0 mi South 9.2 mph - N/A   Mostly Cloudy
9:15 AM 49.3 °F - 37.9 °F 65% 30.25 in 10.0 mi SSW 9.2 mph 16.1 mph N/A   Mostly Cloudy
9:35 AM 51.8 °F - 38.1 °F 60% 30.24 in 10.0 mi SSW 9.2 mph - N/A   Overcast
9:55 AM 55.4 °F - 36.0 °F 48% 30.23 in 10.0 mi SSW 12.7 mph 17.3 mph N/A   Mostly Cloudy
10:15 AM 54.7 °F - 35.4 °F 48% 30.22 in 10.0 mi SSW 13.8 mph 17.3 mph N/A   Overcast
10:35 AM 54.7 °F - 36.0 °F 49% 30.22 in 10.0 mi SW 8.1 mph - N/A   Overcast
10:55 AM 55.6 °F - 36.1 °F 48% 30.22 in 10.0 mi SW 10.4 mph - N/A   Overcast
11:15 AM 56.3 °F - 36.0 °F 46% 30.21 in 10.0 mi SW 9.2 mph 16.1 mph N/A   Overcast
11:35 AM 56.7 °F - 36.0 °F 46% 30.20 in 10.0 mi SW 11.5 mph 17.3 mph N/A   Overcast
11:55 AM 56.1 °F - 37.0 °F 49% 30.18 in 10.0 mi SW 13.8 mph - N/A Rain Light Rain
12:15 PM 55.6 °F - 37.2 °F 50% 30.17 in 10.0 mi SW 16.1 mph - N/A   Overcast
12:35 PM 55.4 °F - 37.4 °F 51% 30.17 in 10.0 mi SW 10.4 mph - N/A   Overcast
12:55 PM 55.8 °F - 37.8 °F 51% 30.16 in 10.0 mi SW 10.4 mph - N/A   Overcast
1:15 PM 56.3 °F - 38.5 °F 51% 30.15 in 10.0 mi SW 10.4 mph - N/A Rain Light Rain
1:35 PM 56.3 °F - 38.8 °F 52% 30.15 in 7.0 mi SW 12.7 mph - N/A Rain Light Rain
1:55 PM 54.3 °F - 41.4 °F 62% 30.14 in 10.0 mi WSW 11.5 mph - N/A Rain Light Rain
2:15 PM 52.7 °F - 43.3 °F 70% 30.13 in 10.0 mi WSW 8.1 mph - N/A Rain Light Rain
2:35 PM 53.6 °F - 44.6 °F 72% 30.13 in 10.0 mi WSW 6.9 mph - N/A Rain Light Rain
2:55 PM 54.1 °F - 45.1 °F 72% 30.13 in 10.0 mi West 3.5 mph - N/A   Overcast
3:15 PM 54.0 °F - 43.2 °F 67% 30.15 in 10.0 mi WNW 5.8 mph - N/A   Overcast
3:35 PM 53.6 °F - 43.2 °F 68% 30.14 in 10.0 mi WNW 5.8 mph - N/A   Overcast
3:55 PM 53.6 °F - 43.9 °F 70% 30.14 in 10.0 mi WSW 4.6 mph - N/A   Overcast
4:15 PM 53.2 °F - 44.6 °F 72% 30.15 in 10.0 mi NW 4.6 mph - N/A   Overcast
4:35 PM 53.1 °F - 43.2 °F 69% 30.15 in 10.0 mi West 4.6 mph - N/A   Overcast
4:55 PM 51.6 °F - 44.6 °F 77% 30.16 in 10.0 mi WNW 9.2 mph - N/A Rain Light Rain
5:15 PM 50.9 °F - 45.7 °F 82% 30.16 in 10.0 mi WNW 6.9 mph - N/A   Light Drizzle
5:35 PM 50.5 °F - 46.4 °F 86% 30.16 in 10.0 mi West 5.8 mph - N/A   Overcast
5:55 PM 50.4 °F - 46.4 °F 86% 30.18 in 10.0 mi NW 9.2 mph - N/A   Overcast
6:15 PM 48.6 °F - 43.7 °F 83% 30.20 in 10.0 mi North 18.4 mph 24.2 mph N/A   Overcast
6:35 PM 47.3 °F - 43.2 °F 86% 30.22 in 10.0 mi North 10.4 mph 19.6 mph N/A   Overcast
6:55 PM 46.8 °F - 42.8 °F 86% 30.22 in 10.0 mi North 12.7 mph 20.7 mph N/A   Overcast
7:15 PM 46.0 °F 40.2 °F 42.8 °F 88% 30.24 in 10.0 mi North 12.7 mph 23.0 mph N/A   Overcast
7:35 PM 45.7 °F 39.8 °F 43.3 °F 92% 30.24 in 10.0 mi North 12.7 mph - N/A   Light Drizzle
7:55 PM 43.5 °F 35.0 °F 40.8 °F 90% 30.25 in 5.0 mi North 20.7 mph 29.9 mph N/A Rain Light Rain
8:15 PM 41.9 °F 34.3 °F 39.7 °F 92% 30.27 in 10.0 mi North 15.0 mph 20.7 mph N/A   Overcast
8:35 PM 41.4 °F 33.0 °F 39.4 °F 93% 30.29 in 10.0 mi North 17.3 mph - N/A Rain Light Rain
8:55 PM 40.6 °F 32.0 °F 38.7 °F 93% 30.31 in 10.0 mi North 17.3 mph 24.2 mph N/A   Light Drizzle
9:15 PM 39.9 °F 31.1 °F 38.1 °F 93% 30.32 in 10.0 mi North 17.3 mph - N/A Rain Light Rain
9:35 PM 39.2 °F 31.2 °F 37.0 °F 92% 30.34 in 10.0 mi North 13.8 mph - 0.01 in Rain Light Rain
9:55 PM 38.5 °F 28.6 °F 36.5 °F 93% 30.35 in 10.0 mi North 19.6 mph 24.2 mph 0.01 in Rain Light Rain
10:15 PM 38.1 °F 29.5 °F 35.6 °F 91% 30.36 in 10.0 mi NNE 15.0 mph 24.2 mph N/A Rain Light Rain
10:35 PM 36.9 °F 28.2 °F 35.2 °F 94% 30.38 in 7.0 mi North 13.8 mph 21.9 mph N/A Rain Light Rain
10:55 PM 36.7 °F 28.4 °F 34.9 °F 93% 30.39 in 10.0 mi North 12.7 mph - N/A Rain Light Rain
11:15 PM 35.8 °F 25.7 °F 34.3 °F 94% 30.40 in 7.0 mi North 17.3 mph 20.7 mph N/A Rain Light Rain
11:35 PM 34.9 °F 26.2 °F 33.8 °F 96% 30.41 in 5.0 mi North 12.7 mph 21.9 mph N/A Snow Light Snow
11:55 PM 34.7 °F 25.9 °F 33.8 °F 97% 30.42 in 5.0 mi North 12.7 mph - 0.01 in Snow Light Snow